Regional Weather Roundup
Issued by NWS

Home | Current Version | Previous Version | Graphics & Text | Print | Product List | Glossary On
Versions: 1 2 3 4 5 6 7 8 9 10 11 12 13 14 15 16 17 18 19 20 21 22 23 24 25 26 27 28 29 30 31 32 33 34 35 36 37 38 39 40 41 42 43 44 45 46 47 48 49 50
000
ASUS44 KMEG 210810
RWRTN
TENNESSEE HOURLY STATE WEATHER ROUNDUP
NATIONAL WEATHER SERVICE MEMPHIS TN
200 AM CST SAT JAN 21 2017

TNZ002-004-019-021-049-052-054-088>092-210900-
WEST TENNESSEE

CITY           SKY/WX    TMP DP  RH WIND       PRES   REMARKS
MEMPHIS INTL   CLOUDY    60  53  77 S5        29.70R
NWS MEMPHIS      N/A     60 N/A N/A MISG        N/A
JACKSON        CLOUDY    61  53  75 S5        29.72S
DYERSBURG      CLOUDY    59  52  77 S5        29.69F
UNION CITY     CLEAR     54  54 100 CALM      29.68S
PARIS          CLEAR     54  50  87 CALM      29.72R
HUNTINGDON     CLEAR     55  52  88 S6        29.72R
$$

TNZ008-025-027-028-033-062-065-066-210900-
NORTH MIDDLE TENNESSEE

CITY           SKY/WX    TMP DP  RH WIND       PRES   REMARKS
NASHVILLE      CLOUDY    59  52  77 S5        29.77R
PORTLAND       CLEAR     57  54  88 S12       29.77R
CLARKSVILLE    CLOUDY    56  50  80 S5        29.73S
SMYRNA         CLOUDY    56  53  90 S6        29.79R
GALLATIN       CLEAR     59  54  82 CALM      29.80S
CROSSVILLE     PTCLDY    54  50  86 S3        29.83F
$$

TNZ061-075-076-078-094-096-097-210900-
SOUTH MIDDLE TENNESSEE

CITY           SKY/WX    TMP DP  RH WIND       PRES   REMARKS
TULLAHOMA      CLEAR     54  52  94 CALM      29.81R
WINCHESTER     CLEAR     57  54  88 CALM      29.81R
MCMINNVILLE    CLEAR     57  54  88 CALM      29.80R
COLUMBIA       CLEAR     61  61 100 S5        29.75S
SHELBYVILLE    CLEAR     61  57  88 S6        29.80R
$$

TNZ017-018-042-046-047-210900-
NORTHEAST TENNESSEE

CITY           SKY/WX    TMP DP  RH WIND       PRES   REMARKS
TRI CITIES     PTCLDY    45  45 100 CALM      29.87F
ELIZABETHTON   PTCLDY    50  48  93 CALM      29.88F
$$

TNZ012-013-036-069-073-074-210900-
CENTRAL EAST TENNESSEE

CITY           SKY/WX    TMP DP  RH WIND       PRES   REMARKS
KNOXVILLE      MOCLDY    53  49  86 NE3       29.83S
OAK RIDGE      CLOUDY    50  47  89 CALM      29.85S
GATLINBURG     CLEAR     46  45  93 CALM      29.85R
MORRISTOWN     MOCLDY    52  50  93 CALM      29.86R
JACKSBORO      PTCLDY    46  46 100 CALM      29.87S
$$

TNZ083-085-099-210900-
SOUTHEAST TENNESSEE

CITY           SKY/WX    TMP DP  RH WIND       PRES   REMARKS
CHATTANOOGA    PTCLDY    53  50  89 CALM      29.83S
$$

SKY/WX REPORTED AS FAIR MEANS FEW OR NO CLOUDS BELOW
12 THOUSAND FEET.




USA.gov is the U.S. government's official web portal to all federal, state and local government web resources and services.